Flag for U.S.A. Weather past 2 weeks in El Monte, California, U.S.A.

Now
54 °F

Clear.


Feels Like: 53 °F
Forecast: 51 / 83 °F
Wind: 5 mph from Northwest

Location: Fullerton Municipal Airport

Current Time: Mar 6, 2015 at 1:28:38 AM

Latest Report: Mar 6, 2015 at 12:53 AM


Visibility: 10 mi

Pressure: 30.13 "Hg

Humidity: 37%

Dew point: 28 °F

Location of El MonteLocation

Historic Weather in El Monte — Graph

°F

El Monte temperature yesterday

Maximum temperature yesterday: 79 °F (at 1:53 PM)
Minimum temperature yesterday: 46 °F (at 5:53 AM)
Average temperature yesterday: 63 °F

Past Weeks' High & Low Weather Summary

 TemperatureHumidityPressure
High79 °F (Mar 5, 1:53 PM)93% (Feb 23, 3:53 AM)30.26 "Hg (Feb 23, 3:53 AM)
Low45 °F (Feb 24, 5:53 AM)10% (Mar 5, 3:53 PM)29.75 "Hg (Feb 27, 4:53 PM)
Average59 °F63%29.97 "Hg
* Reported Feb 18 11:53 PM — Mar 5 11:53 PM, El Monte, Weather by CustomWeather, © 2015

Note: Actual official high and low records may vary slightly from our data, if they occured in-between our weather recording intervals... More about our weather records

Advertising

El Monte weather history for previous 24 hours

 ConditionsComfort  
Time TempWeatherWind HumidityBarometerVisibility
11:53 PM
Thu, Mar 5
56 °FClear.3 mph33%30.14 "Hg10 mi
10:53 PM64 °FClear.6 mph18%30.14 "Hg10 mi
9:53 PM57 °FClear.No wind34%30.15 "Hg10 mi
8:53 PM62 °FClear.3 mph23%30.16 "Hg10 mi
7:53 PM66 °FClear.5 mph16%30.15 "Hg10 mi
6:53 PM68 °FClear.5 mph15%30.15 "Hg10 mi
5:53 PM72 °FClear.8 mph14%30.14 "Hg10 mi
4:53 PM78 °FSunny.6 mph10%30.13 "Hg10 mi
3:53 PM79 °FSunny.6 mph10%30.14 "Hg10 mi
2:53 PM79 °FSunny.6 mph11%30.15 "Hg10 mi
1:53 PM79 °FSunny.5 mph12%30.17 "Hg10 mi
12:53 PM78 °FSunny.No wind11%30.19 "Hg10 mi
11:53 AM76 °FSunny.7 mph13%30.23 "Hg10 mi
10:53 AM74 °FSunny.3 mph14%30.25 "Hg10 mi
9:53 AM71 °FSunny.3 mph16%30.26 "Hg10 mi
8:53 AM67 °FSunny.5 mph20%30.26 "Hg10 mi
7:53 AM57 °FSunny.No wind42%30.25 "Hg10 mi
6:53 AM48 °FSunny.No wind63%30.22 "Hg10 mi
5:53 AM46 °FClear.No wind63%30.20 "Hg10 mi
4:53 AM47 °FClear.No wind66%30.18 "Hg10 mi
3:53 AM48 °FClear.No wind61%30.16 "Hg10 mi
2:53 AM50 °FClear.No wind59%30.16 "Hg10 mi
1:53 AM50 °FClear.6 mph61%30.16 "Hg10 mi
Weather by CustomWeather, © 2015

See weather overviewHow to use our weather pages